Location: Nickerson Gardens
(33.9320°N, 118.2484°W)
Time: 00:29:44
(UTC+00:00)

Envisat - Pass Details

Date: 22 January 2021
Orbit: 764 x 766 km, 98.1° (Epoch: 06 March)

Event Time Altitude Azimuth Distance (km) Brightness Sun altitude
Rises 13:09:30 0° 19° (NNE) 3,236 6.4 -21.9°
Reaches altitude 10° 13:11:54 10° 25° (NNE) 2,306 5.6 -21.4°
Maximum altitude 13:16:48 48° 99° (E) 997 4.0 -20.4°
Drops below altitude 10° 13:21:40 10° 174° (S) 2,291 5.7 -19.4°
Sets 13:24:02 0° 179° (S) 3,213 6.4 -18.9°
